QPF
0.00 0.00 0.00 0.00 0.00 0.00 0.00 0.00 0.00 0.00 0.00 0.00 0.00 0.00 0.00 0.00 0.00 0.00 0.00 0.00 0.00 0.00 0.00 0.00 0.00 0.00 0.00 0.00 0.00 0.00 0.00 0.00 0.00 0.00 0.00 0.00 0.00 0.00 0.00 0.00 0.00 0.00 0.00 0.00 0.00
0.00 0.00 0.00 0.00 0.00 0.00 0.00 0.00 0.00 0.00 0.00 0.00 0.00 0.00 0.00 0.00 0.00 0.00 0.00 0.00 0.00 0.00 0.00 0.00 0.00 0.00 0.00 0.00 0.00 0.00 0.00 0.00 0.00 0.00 0.00 0.00 0.00 0.00 0.00 0.00 0.00 0.00 0.00 0.00 0.00
0.00 0.00 0.00 0.00 0.00 0.00 0.00 0.00 0.00 0.00 0.00 0.00 0.00 0.00 0.00 0.00 0.00 0.00 0.00 0.00 0.00 0.00 0.00 0.00 0.00 0.00 0.00 0.00 0.00 0.00 0.00 0.00 0.00 0.00 0.00 0.00 0.00 0.00 0.00 0.00 0.00 0.00 0.00 0.00 0.00
0.00 0.00 0.00 0.00 0.00 0.00 0.00 0.00 0.00 0.00 0.00 0.00 0.00 0.00 0.00 0.00 0.00 0.00 0.00 0.00 0.00 0.00 0.00 0.00 0.00 0.00 0.00 0.00 0.00 0.00 0.00 0.00 0.00 0.00 0.00 0.00 0.00 0.00 0.00 0.00 0.00 0.00 0.00 0.00 0.00
0.00 0.00 0.00 0.00 0.00 0.00 0.00 0.00 0.00 0.00 0.00 0.00 0.00 0.00 0.00 0.00 0.00 0.00 0.00 0.00 0.00 0.00 0.00 0.00 0.00 0.00 0.00 0.00 0.00 0.00 0.00 0.00 0.00 0.00 0.00 0.00 0.00 0.00 0.00 0.00 0.00 0.00 0.00 0.00 0.00
0.00 0.00 0.00 0.00 0.00 0.00 0.00 0.00 0.00 0.00 0.00 0.00 0.00 0.00 0.00 0.00 0.00 0.00 0.00 0.00 0.00 0.00 0.00 0.00 0.00 0.00 0.00 0.00 0.00 0.00 0.00 0.00 0.00 0.00 0.00 0.00 0.00 0.00 0.00 0.00 0.00 0.00 0.00 0.00 0.00
0.00 0.00 0.00 0.00 0.00 0.00 0.00 0.00 0.00 0.00 0.00 0.00 0.00 0.00 0.00 0.00 0.00 0.00 0.00 0.00 0.00 0.00 0.00 0.00 0.00 0.00 0.00 0.00 0.00 0.00 0.00 0.00 0.00 0.00 0.00 0.00 0.00 0.00 0.00 0.00 0.00 0.00 0.00 0.00 0.00
0.00 0.00 0.00 0.00 0.00 0.00 0.00 0.00 0.00 0.00 0.00 0.00 0.00 0.00 0.00 0.00 0.00 0.00 0.00 0.00 0.00 0.00 0.00 0.00 0.00 0.00 0.00 0.00 0.00 0.00 0.00 0.00 0.00 0.00 0.00 0.00 0.00 0.00 0.00 0.00 0.00 0.00 0.00 0.00 0.00
0.00 0.00 0.00 0.00 0.00 0.00 0.00 0.00 0.00 0.00 0.00 0.00 0.00 0.00 0.00 0.00 0.00 0.00 0.00 0.00 0.00 0.00 0.00 0.00 0.00 0.00 0.00 0.00 0.00 0.00 0.00 0.00 0.00 0.00 0.00 0.00 0.00 0.00 0.00 0.00 0.00 0.00 0.00 0.00 0.00
0.00 0.00 0.00 0.00 0.00 0.00 0.00 0.00 0.00 0.00 0.00 0.00 0.00 0.00 0.00 0.00 0.00 0.00 0.00 0.00 0.00 0.00 0.00 0.00 0.00 0.00 0.00 0.00 0.00 0.00 0.00 0.00 0.00 0.00 0.00 0.00 0.00 0.00 0.00 0.00 0.00 0.00 0.00 0.00 0.00
0.00 0.00 0.00 0.00 0.00 0.00 0.00 0.00 0.00 0.00 0.00 0.00 0.00 0.00 0.00 0.00 0.00 0.00 0.00 0.00 0.00 0.00 0.00 0.00 0.00 0.00 0.00 0.00 0.00 0.00 0.00 0.00 0.00 0.00 0.00 0.00 0.00 0.00 0.00 0.00 0.00 0.00 0.00 0.00 0.00
0.00 0.00 0.00 0.00 0.00 0.00 0.00 0.00 0.00 0.00 0.00 0.00 0.00 0.00 0.00 0.00 0.00 0.00 0.00 0.00 0.00 0.00 0.00 0.00 0.00 0.00 0.00 0.00 0.00 0.00 0.00 0.00 0.00 0.00 0.00 0.00 0.00 0.00 0.00 0.00 0.00 0.00 0.00 0.00 0.00
0.00 0.00 0.00 0.00 0.00 0.00 0.00 0.00 0.00 0.00 0.00 0.00 0.00 0.00 0.00 0.00 0.00 0.00 0.00 0.00 0.00 0.00 0.00 0.00 0.00 0.00 0.00 0.00 0.00 0.00 0.00 0.00 0.00 0.00 0.00 0.00 0.00 0.00 0.00 0.00 0.00 0.00 0.00 0.00 0.00
0.00 0.00 0.00 0.00 0.00 0.00 0.00 0.00 0.00 0.00 0.00 0.00 0.00 0.00 0.00 0.00 0.00 0.00 0.00 0.00 0.00 0.00 0.00 0.00 0.00 0.00 0.00 0.00 0.00 0.00 0.00 0.00 0.00 0.00 0.00 0.00 0.00 0.00 0.00 0.00 0.00 0.00 0.00 0.00 0.00
0.00 0.00 0.00 0.00 0.00 0.00 0.00 0.00 0.00 0.00 0.00 0.00 0.00 0.00 0.00 0.00 0.00 0.00 0.00 0.00 0.00 0.00 0.00 0.00 0.00 0.00 0.00 0.00 0.00 0.00 0.00 0.00 0.00 0.00 0.00 0.00 0.00 0.00 0.00 0.00 0.00 0.00 0.00 0.00 0.00
0.00 0.00 0.00 0.00 0.00 0.00 0.00 0.00 0.00 0.00 0.00 0.00 0.00 0.00 0.00 0.00 0.00 0.00 0.00 0.00 0.00 0.00 0.00 0.00 0.00 0.00 0.00 0.00 0.00 0.00 0.00 0.00 0.00 0.01 0.02 0.00 0.00 0.00 0.00 0.00 0.00 0.00 0.00 0.00 0.00
0.00 0.00 0.00 0.00 0.00 0.00 0.00 0.00 0.00 0.00 0.00 0.00 0.00 0.00 0.00 0.00 0.00 0.00 0.00 0.00 0.00 0.00 0.01 0.00 0.00 0.00 0.00 0.01 0.00 0.00 0.00 0.01 0.01 0.02 0.01 0.00 0.01 0.00 0.00 0.00 0.00 0.00 0.00 0.00 0.00
0.00 0.00 0.00 0.00 0.00 0.00 0.00 0.00 0.00 0.00 0.00 0.00 0.00 0.00 0.00 0.00 0.00 0.00 0.00 0.00 0.00 0.02 0.02 0.01 0.00 0.01 0.01 0.01 0.01 0.01 0.02 0.02 0.01 0.01 0.00 0.00 0.00 0.00 0.00 0.00 0.00 0.00 0.00 0.00 0.00
0.00 0.00 0.00 0.00 0.00 0.00 0.00 0.00 0.00 0.00 0.00 0.00 0.00 0.00 0.00 0.00 0.00 0.00 0.00 0.00 0.00 0.01 0.02 0.01 0.00 0.00 0.00 0.00 0.00 0.00 0.00 0.01 0.02 0.01 0.01 0.00 0.00 0.00 0.00 0.00 0.00 0.00 0.00 0.00 0.00
0.00 0.00 0.00 0.00 0.00 0.00 0.00 0.00 0.00 0.00 0.00 0.00 0.00 0.00 0.00 0.00 0.00 0.00 0.00 0.00 0.00 0.01 0.01 0.02 0.01 0.00 0.00 0.00 0.00 0.00 0.00 0.02 0.04 0.03 0.03 0.01 0.00 0.00 0.00 0.00 0.00 0.00 0.00 0.00 0.00
0.00 0.00 0.00 0.00 0.00 0.00 0.00 0.00 0.00 0.00 0.00 0.00 0.00 0.00 0.00 0.00 0.00 0.00 0.00 0.00 0.00 0.00 0.01 0.01 0.02 0.00 0.00 0.00 0.00 0.01 0.01 0.02 0.04 0.04 0.03 0.02 0.01 0.00 0.00 0.00 0.00 0.00 0.00 0.00 0.00
0.00 0.00 0.00 0.00 0.00 0.00 0.00 0.00 0.00 0.00 0.00 0.00 0.00 0.00 0.00 0.01 0.01 0.00 0.00 0.00 0.00 0.01 0.01 0.01 0.03 0.01 0.00 0.00 0.00 0.00 0.00 0.01 0.03 0.04 0.03 0.03 0.01 0.00 0.00 0.00 0.00 0.00 0.00 0.00 0.00
0.00 0.00 0.00 0.00 0.00 0.00 0.00 0.00 0.00 0.00 0.00 0.00 0.00 0.00 0.00 0.00 0.00 0.00 0.00 0.00 0.00 0.01 0.02 0.02 0.03 0.01 0.00 0.01 0.00 0.00 0.00 0.00 0.01 0.02 0.02 0.02 0.02 0.00 0.00 0.00 0.00 0.00 0.00 0.00 0.00
0.00 0.00 0.00 0.00 0.00 0.00 0.00 0.00 0.00 0.00 0.00 0.00 0.00 0.00 0.00 0.00 0.00 0.00 0.00 0.00 0.00 0.01 0.04 0.05 0.01 0.01 0.00 0.00 0.00 0.01 0.00 0.00 0.02 0.03 0.01 0.00 0.00 0.00 0.00 0.00 0.00 0.00 0.00 0.00 0.00
0.00 0.00 0.00 0.00 0.00 0.00 0.00 0.00 0.00 0.00 0.00 0.00 0.00 0.00 0.00 0.00 0.00 0.00 0.00 0.00 0.00 0.01 0.02 0.02 0.01 0.00 0.01 0.00 0.00 0.00 0.01 0.01 0.02 0.01 0.01 0.00 0.00 0.00 0.00 0.00 0.00 0.00 0.00 0.00 0.00
0.00 0.00 0.00 0.00 0.00 0.00 0.00 0.00 0.00 0.00 0.00 0.00 0.00 0.00 0.00 0.00 0.00 0.00 0.00 0.00 0.00 0.00 0.01 0.01 0.01 0.01 0.00 0.00 0.00 0.00 0.00 0.01 0.01 0.01 0.01 0.00 0.00 0.00 0.00 0.00 0.00 0.00 0.00 0.00 0.00
0.00 0.00 0.00 0.00 0.00 0.00 0.00 0.00 0.00 0.00 0.00 0.00 0.00 0.00 0.00 0.00 0.00 0.00 0.00 0.00 0.00 0.00 0.00 0.00 0.00 0.01 0.00 0.00 0.00 0.00 0.01 0.01 0.01 0.01 0.01 0.01 0.00 0.00 0.00 0.00 0.00 0.00 0.00 0.00 0.00
MSLP
1021.28 1020.85 1020.47 1020.12 1019.78 1019.40 1018.97 1018.48 1017.93 1017.59 1017.32 1017.04 1016.81 1016.56 1016.35 1016.02 1015.56 1014.42 1013.14 1013.36 1013.24 1013.70 1013.41 1012.07 1011.62 1011.22 1010.86 1009.51 1008.90 1008.63 1005.92 1002.94 1001.95 1001.30 1001.17 1001.97 1001.67 1001.84 1002.02 1001.86 1001.55 1001.24 1001.09 1000.82 1001.86
1021.24 1020.76 1020.32 1019.91 1019.53 1019.14 1018.77 1018.36 1017.90 1017.44 1017.06 1016.66 1016.41 1016.24 1016.07 1015.85 1014.62 1013.23 1013.32 1013.52 1013.62 1013.62 1012.22 1011.25 1010.66 1010.62 1009.64 1009.10 1008.45 1007.53 1005.34 1003.03 1002.52 1001.85 1001.61 1001.80 1002.19 1002.05 1001.99 1001.69 1001.32 1001.23 1001.19 1001.42 1002.08
1021.19 1020.58 1020.14 1019.74 1019.30 1018.84 1018.39 1018.00 1017.57 1017.14 1016.74 1016.36 1016.17 1016.03 1015.87 1015.59 1013.52 1012.19 1013.20 1013.42 1013.24 1013.03 1012.22 1011.64 1010.76 1010.12 1009.09 1008.60 1007.64 1006.76 1004.56 1003.83 1003.08 1002.90 1002.69 1002.68 1002.31 1002.73 1001.89 1000.96 1000.66 1000.55 1000.64 1001.11 1001.68
1021.29 1020.75 1020.15 1019.64 1019.14 1018.61 1018.08 1017.57 1017.09 1016.71 1016.46 1016.13 1015.81 1015.70 1015.55 1014.52 1012.37 1012.18 1012.92 1013.08 1013.15 1012.78 1012.00 1011.26 1010.46 1009.44 1008.70 1007.72 1007.60 1006.68 1005.76 1005.23 1004.54 1004.04 1003.61 1003.45 1003.14 1002.50 1002.02 1001.42 1000.91 1000.98 1000.59 1000.96 1001.28
1021.37 1020.68 1020.14 1019.62 1019.13 1018.56 1018.00 1017.45 1016.95 1016.49 1016.22 1015.99 1015.72 1015.54 1015.12 1012.71 1011.81 1012.24 1012.78 1012.74 1012.37 1011.95 1011.35 1010.81 1010.13 1009.25 1008.11 1007.36 1007.30 1006.46 1006.01 1005.68 1005.32 1005.22 1004.99 1004.41 1003.18 1002.77 1001.86 1002.08 1001.85 1001.32 1000.96 1001.23 1001.26
1021.61 1020.90 1020.12 1019.44 1018.87 1018.41 1017.86 1017.29 1016.80 1016.33 1015.89 1015.82 1015.67 1015.51 1013.82 1011.62 1011.70 1011.77 1011.90 1011.89 1011.55 1011.26 1010.73 1010.55 1009.81 1009.55 1008.83 1007.92 1007.17 1006.34 1005.76 1005.45 1005.33 1004.94 1004.91 1004.54 1003.52 1003.23 1000.87 1002.34 1002.14 1001.82 1001.09 1000.87 1000.93
1021.49 1020.91 1020.28 1019.54 1018.73 1017.99 1017.39 1017.01 1016.55 1016.01 1015.63 1015.59 1015.63 1014.90 1013.14 1011.36 1011.47 1011.44 1011.40 1011.08 1011.22 1011.01 1010.39 1010.10 1010.15 1009.89 1008.80 1008.06 1007.55 1007.08 1006.42 1005.67 1004.84 1004.53 1004.16 1004.45 1002.68 1001.30 1001.37 1001.61 1001.16 1001.17 1001.05 1000.64 1000.37
1021.23 1020.52 1019.90 1019.28 1018.50 1017.75 1017.17 1016.72 1016.28 1015.65 1015.43 1015.49 1015.53 1014.47 1011.62 1011.05 1011.12 1010.85 1010.74 1010.35 1011.00 1010.96 1010.72 1010.45 1010.23 1009.70 1008.94 1008.26 1007.60 1006.84 1005.80 1004.15 1003.34 1003.13 1003.07 1003.79 999.65 1000.00 1000.44 1000.36 1000.14 1000.56 1000.38 999.90 999.56
1021.14 1020.34 1019.57 1018.88 1018.14 1017.42 1016.76 1016.25 1015.80 1015.51 1015.46 1015.50 1014.94 1013.64 1010.78 1010.99 1010.50 1010.59 1010.66 1010.33 1010.16 1010.15 1010.46 1010.50 1010.00 1009.12 1008.31 1007.98 1006.37 1004.98 1004.05 1003.14 1002.76 1002.48 1002.74 1002.45 999.72 1000.23 1000.02 999.14 998.85 998.85 999.34 998.98 998.88
1020.98 1020.16 1019.29 1018.49 1017.78 1017.07 1016.39 1015.70 1015.46 1015.43 1015.12 1014.67 1014.34 1013.50 1010.87 1010.44 1010.58 1010.58 1010.49 1010.67 1010.16 1009.66 1009.50 1009.77 1009.31 1008.29 1007.49 1006.88 1004.76 1003.43 1003.08 1002.59 1002.31 1002.84 1002.63 1001.84 1000.03 1000.26 999.69 999.03 998.51 998.46 998.25 997.99 997.80
1020.91 1019.99 1019.10 1018.20 1017.40 1016.76 1015.68 1014.76 1014.62 1013.84 1013.52 1012.88 1012.22 1011.58 1010.90 1010.72 1010.40 1010.06 1010.01 1010.07 1009.63 1009.43 1008.64 1008.22 1007.88 1006.47 1006.03 1005.64 1005.17 1004.84 1004.21 1003.18 1002.78 1003.02 1002.62 1001.49 1000.46 999.96 999.91 999.42 999.26 998.67 998.17 997.55 997.09
1020.66 1019.71 1018.77 1017.85 1017.04 1016.40 1015.79 1014.30 1014.90 1014.91 1013.05 1011.84 1011.50 1011.51 1011.29 1011.17 1010.36 1009.25 1009.82 1009.69 1009.17 1008.62 1008.19 1007.66 1006.40 1006.05 1005.78 1005.49 1005.18 1004.58 1004.06 1002.90 1003.05 1003.03 1003.06 1002.00 1000.54 1000.25 999.92 999.46 999.10 998.69 997.98 997.37 996.93
1020.36 1019.46 1018.46 1017.44 1016.64 1016.03 1014.99 1015.18 1015.12 1015.00 1013.14 1011.18 1011.03 1010.58 1010.26 1010.70 1009.79 1009.25 1009.60 1009.13 1009.03 1008.43 1007.70 1006.74 1005.72 1005.68 1005.78 1005.36 1004.89 1004.14 1003.68 1003.22 1003.07 1002.86 1002.72 1002.52 1000.61 999.97 999.42 998.80 998.68 998.19 997.77 997.31 996.62
1020.16 1019.10 1018.23 1017.07 1016.69 1015.58 1014.82 1015.24 1014.92 1014.92 1012.29 1010.44 1010.18 1010.11 1010.19 1009.88 1008.68 1009.27 1009.24 1009.43 1008.93 1008.09 1007.66 1006.74 1005.92 1005.66 1005.46 1004.69 1004.44 1003.31 1003.50 1003.43 1003.22 1003.04 1001.80 1001.57 999.38 998.70 998.21 997.60 997.19 996.76 996.56 995.92 996.09
1020.16 1019.09 1018.16 1017.29 1016.10 1014.92 1015.44 1015.05 1014.76 1014.46 1011.61 1010.55 1009.86 1010.12 1009.80 1009.55 1009.21 1008.56 1009.14 1009.03 1008.42 1007.89 1007.92 1005.90 1005.60 1005.41 1004.83 1004.14 1004.12 1003.54 1003.54 1003.53 1003.44 1002.74 1002.12 1000.98 999.40 997.79 996.99 995.54 995.10 994.99 994.92 995.06 995.18
1019.99 1018.95 1017.97 1016.62 1015.93 1015.47 1015.30 1015.00 1014.60 1012.83 1010.58 1010.02 1010.09 1009.82 1009.44 1009.10 1008.93 1008.84 1008.68 1008.72 1008.64 1008.21 1007.58 1006.46 1006.03 1005.60 1004.90 1004.43 1004.13 1003.90 1004.03 1003.70 1003.30 1002.69 1001.27 1000.22 999.09 996.86 995.92 994.87 994.23 994.57 994.50 994.24 994.13
1019.66 1018.65 1017.83 1016.83 1015.97 1015.54 1015.22 1014.11 1012.65 1011.34 1010.78 1010.34 1010.38 1010.20 1009.94 1009.23 1009.05 1009.04 1008.82 1008.30 1008.36 1008.26 1006.83 1006.12 1004.58 1004.54 1004.97 1004.30 1003.66 1004.08 1003.88 1003.37 1002.08 1001.34 1000.05 999.14 998.83 996.86 995.56 994.30 993.89 993.78 993.68 993.47 993.46
1019.33 1018.48 1017.79 1016.86 1016.08 1015.68 1014.74 1013.02 1012.08 1011.11 1011.27 1011.56 1011.36 1010.85 1010.13 1010.10 1009.70 1009.50 1009.03 1008.42 1008.63 1009.06 1008.36 1006.65 1004.46 1004.40 1004.64 1004.49 1004.08 1003.86 1003.95 1003.70 1001.95 1000.84 999.72 998.56 997.14 995.70 995.61 994.78 994.34 993.31 993.48 992.73 992.70
1018.94 1017.24 1016.51 1016.28 1016.10 1015.54 1014.02 1012.70 1011.98 1012.80 1013.43 1012.93 1012.16 1010.86 1010.32 1010.59 1010.71 1010.23 1009.14 1008.92 1008.99 1009.45 1008.96 1007.62 1005.80 1004.98 1004.67 1004.47 1004.46 1003.38 1003.05 1003.01 1003.25 1002.70 1001.22 999.22 997.19 995.89 994.89 994.38 994.21 993.79 993.42 992.68 992.69
1018.92 1017.24 1016.24 1016.35 1016.09 1015.02 1013.82 1013.88 1013.88 1014.58 1014.79 1014.14 1013.19 1012.38 1011.80 1011.46 1011.44 1011.00 1009.78 1009.06 1009.40 1009.62 1009.75 1008.80 1007.30 1005.22 1004.44 1004.60 1003.88 1003.56 1003.12 1003.86 1004.38 1002.48 1000.28 998.17 996.54 994.59 994.18 993.41 993.52 993.33 993.05 992.68 992.70
1018.68 1016.50 1016.51 1016.22 1015.73 1014.64 1014.87 1015.24 1015.54 1015.84 1015.72 1015.16 1014.10 1013.67 1013.33 1013.03 1012.52 1011.98 1010.48 1009.73 1009.68 1009.85 1010.26 1009.82 1009.19 1006.16 1005.02 1003.67 1002.77 1002.67 1003.16 1004.60 1004.38 1002.85 1000.73 998.53 996.35 996.40 993.83 993.40 992.58 992.66 992.48 992.15 992.24
1018.80 1016.21 1016.88 1016.00 1014.75 1015.32 1015.66 1016.98 1017.46 1016.17 1015.94 1015.48 1014.89 1014.09 1013.81 1013.88 1013.34 1012.37 1010.85 1010.47 1010.67 1011.08 1010.72 1009.87 1009.44 1007.02 1004.88 1003.48 1003.13 1002.99 1002.86 1003.13 1003.43 1002.25 1001.26 999.51 997.02 994.63 994.10 993.76 993.14 992.80 992.47 992.17 992.09
1019.10 1017.65 1017.21 1016.28 1015.98 1016.34 1016.76 1016.87 1017.00 1016.56 1016.21 1015.84 1015.38 1014.75 1014.58 1014.66 1014.26 1012.48 1011.28 1010.99 1011.54 1011.63 1011.40 1011.23 1009.86 1007.21 1004.41 1003.28 1003.33 1003.29 1003.22 1003.48 1003.17 1003.12 1001.48 1000.09 997.60 996.19 994.87 994.33 994.34 993.80 993.08 993.12 992.96
1019.66 1017.57 1016.90 1017.16 1018.04 1017.80 1017.30 1016.77 1016.49 1016.54 1016.32 1016.17 1015.51 1015.16 1014.65 1014.64 1014.24 1012.80 1011.68 1011.59 1011.88 1011.95 1011.87 1011.73 1009.63 1008.30 1006.02 1004.09 1004.00 1004.30 1004.28 1004.28 1004.28 1002.96 1000.86 998.64 997.45 995.87 995.70 995.37 994.58 994.82 994.52 993.80 993.71
1020.53 1019.78 1020.42 1018.06 1017.42 1018.18 1017.68 1017.20 1016.61 1016.45 1016.66 1016.14 1015.31 1015.15 1015.19 1014.69 1013.84 1012.45 1011.68 1012.08 1011.50 1011.14 1011.19 1010.77 1009.07 1007.60 1006.15 1004.98 1004.12 1003.60 1003.84 1004.23 1004.10 1003.26 1001.91 999.71 997.64 997.04 996.01 995.62 994.88 995.12 995.20 994.82 993.96
1021.60 1021.65 1020.78 1019.70 1019.00 1018.16 1017.61 1016.72 1016.92 1016.95 1017.06 1015.70 1015.62 1015.25 1015.30 1014.96 1014.38 1012.42 1012.34 1012.03 1011.83 1010.96 1011.10 1010.50 1008.77 1007.18 1004.95 1003.59 1002.83 1002.75 1003.47 1004.02 1003.60 1003.14 1002.26 1000.50 997.62 997.94 997.58 996.45 995.70 995.35 995.20 994.93 994.46
1022.92 1023.03 1022.86 1020.11 1018.74 1017.98 1017.35 1017.43 1017.18 1017.23 1016.26 1015.97 1015.97 1015.98 1015.04 1014.06 1013.22 1012.12 1011.44 1011.04 1011.28 1011.41 1011.17 1010.56 1009.03 1007.36 1004.18 1002.75 1002.58 1002.96 1004.43 1005.04 1004.40 1003.89 1002.96 1001.41 999.74 999.30 997.76 996.16 995.18 994.95 994.66 994.43 994.43
Thickness
5672 5673 5674 5676 5678 5679 5682 5684 5688 5690 5692 5694 5695 5696 5696 5697 5698 5707 5713 5711 5709 5704 5704 5713 5713 5715 5715 5721 5727 5727 5726 5742 5763 5771 5779 5796 5791 5810 5816 5808 5817 5826 5831 5841 5846
5671 5673 5674 5675 5677 5678 5680 5681 5683 5686 5688 5691 5692 5692 5690 5690 5699 5706 5704 5699 5695 5693 5702 5703 5702 5703 5705 5706 5711 5710 5715 5741 5765 5771 5767 5784 5782 5789 5790 5794 5801 5811 5828 5837 5836
5669 5672 5673 5674 5676 5678 5679 5679 5680 5681 5682 5684 5684 5683 5682 5680 5694 5700 5691 5687 5686 5685 5688 5688 5691 5689 5690 5695 5700 5705 5712 5738 5744 5746 5750 5754 5767 5773 5776 5783 5803 5804 5816 5824 5826
5666 5668 5670 5672 5675 5677 5679 5680 5681 5682 5680 5679 5678 5676 5673 5678 5686 5687 5678 5673 5669 5669 5671 5672 5672 5671 5671 5675 5683 5679 5701 5707 5714 5721 5724 5727 5746 5751 5766 5783 5798 5804 5813 5815 5817
5665 5665 5666 5667 5669 5672 5674 5675 5675 5676 5674 5671 5669 5666 5669 5681 5675 5672 5662 5658 5656 5656 5653 5651 5650 5654 5655 5664 5663 5666 5678 5684 5690 5693 5697 5709 5725 5733 5753 5769 5781 5790 5795 5800 5806
5662 5662 5664 5666 5666 5666 5667 5669 5668 5667 5666 5662 5657 5654 5662 5663 5663 5655 5648 5643 5640 5638 5636 5633 5634 5637 5635 5639 5643 5658 5660 5665 5671 5677 5682 5684 5703 5710 5760 5751 5754 5762 5776 5789 5795
5660 5660 5660 5661 5663 5664 5664 5663 5663 5662 5658 5651 5646 5644 5647 5650 5647 5637 5630 5627 5623 5621 5620 5624 5620 5614 5622 5620 5632 5631 5626 5639 5654 5663 5667 5672 5676 5711 5744 5738 5743 5748 5760 5774 5786
5659 5660 5660 5660 5661 5661 5660 5658 5656 5654 5649 5641 5634 5633 5639 5644 5632 5626 5622 5620 5611 5608 5604 5606 5607 5604 5604 5612 5612 5610 5617 5625 5653 5659 5659 5650 5684 5725 5730 5727 5732 5739 5751 5764 5777
5656 5657 5658 5659 5659 5659 5658 5656 5653 5648 5640 5632 5629 5626 5632 5631 5622 5619 5614 5606 5606 5602 5594 5590 5590 5591 5597 5588 5599 5617 5606 5619 5629 5645 5637 5642 5679 5699 5709 5717 5727 5740 5748 5760 5769
5652 5653 5655 5656 5656 5655 5653 5652 5647 5639 5631 5625 5618 5609 5625 5613 5608 5605 5607 5598 5591 5588 5581 5576 5576 5580 5588 5584 5591 5609 5610 5618 5612 5619 5619 5629 5657 5668 5689 5702 5714 5729 5743 5755 5763
5646 5648 5649 5651 5651 5649 5650 5654 5653 5648 5635 5627 5622 5612 5607 5607 5605 5599 5599 5589 5585 5576 5566 5573 5566 5576 5583 5588 5592 5589 5590 5595 5606 5604 5596 5612 5631 5644 5662 5677 5688 5710 5728 5745 5758
5643 5644 5645 5646 5646 5644 5642 5643 5628 5620 5623 5623 5613 5602 5600 5594 5585 5594 5591 5575 5571 5563 5565 5561 5561 5577 5581 5581 5578 5580 5578 5591 5592 5595 5581 5590 5604 5623 5639 5662 5676 5693 5715 5735 5749
5641 5641 5642 5643 5641 5640 5638 5625 5617 5608 5609 5615 5608 5601 5598 5589 5583 5583 5579 5573 5558 5552 5554 5553 5567 5568 5563 5565 5564 5573 5574 5580 5577 5583 5577 5567 5578 5598 5622 5651 5664 5683 5709 5725 5741
5638 5640 5639 5640 5638 5635 5630 5617 5610 5599 5606 5609 5603 5597 5590 5586 5584 5582 5576 5563 5554 5548 5546 5547 5558 5552 5552 5558 5566 5569 5578 5576 5571 5563 5560 5579 5562 5593 5616 5635 5660 5679 5699 5725 5731
5632 5634 5634 5633 5634 5632 5618 5610 5603 5593 5599 5598 5595 5594 5585 5576 5574 5575 5571 5558 5547 5546 5538 5550 5548 5546 5549 5561 5565 5566 5574 5567 5562 5561 5556 5562 5561 5583 5612 5630 5661 5681 5699 5713 5725
5627 5629 5629 5630 5625 5618 5610 5602 5594 5594 5590 5591 5586 5578 5574 5573 5568 5566 5561 5559 5548 5538 5538 5540 5547 5545 5550 5559 5563 5567 5558 5558 5559 5554 5543 5556 5560 5576 5604 5622 5651 5663 5681 5701 5718
5624 5625 5624 5619 5616 5610 5604 5601 5599 5590 5595 5582 5571 5569 5562 5562 5560 5554 5549 5547 5536 5524 5537 5541 5553 5557 5551 5552 5563 5555 5549 5540 5551 5552 5551 5572 5548 5571 5602 5627 5640 5652 5673 5695 5711
5621 5620 5617 5612 5608 5602 5600 5600 5581 5593 5580 5571 5560 5557 5553 5551 5551 5548 5545 5543 5539 5523 5520 5527 5545 5551 5551 5546 5546 5550 5545 5534 5539 5556 5563 5580 5562 5584 5596 5608 5620 5644 5661 5690 5706
5617 5621 5617 5609 5600 5595 5597 5588 5588 5569 5554 5548 5550 5553 5551 5545 5539 5536 5543 5537 5535 5522 5515 5522 5535 5550 5548 5548 5545 5553 5549 5559 5534 5537 5535 5557 5573 5584 5594 5597 5608 5626 5644 5671 5691
5611 5614 5613 5601 5594 5593 5590 5568 5563 5549 5537 5534 5529 5537 5531 5531 5527 5525 5533 5541 5529 5525 5519 5519 5519 5545 5546 5542 5549 5546 5558 5533 5520 5525 5539 5564 5572 5585 5587 5597 5600 5613 5635 5661 5679
5607 5614 5602 5594 5590 5588 5564 5556 5543 5531 5523 5516 5518 5515 5512 5509 5515 5513 5525 5533 5529 5522 5514 5511 5504 5533 5541 5545 5548 5550 5540 5518 5525 5537 5543 5553 5576 5567 5592 5597 5604 5617 5638 5658 5674
5600 5612 5591 5589 5589 5574 5560 5533 5516 5521 5513 5504 5500 5504 5503 5500 5495 5509 5520 5518 5517 5507 5502 5515 5502 5521 5538 5551 5552 5549 5546 5544 5524 5543 5543 5548 5563 5599 5598 5596 5603 5608 5628 5652 5670
5588 5589 5583 5581 5569 5558 5545 5532 5520 5510 5500 5489 5486 5493 5497 5492 5483 5510 5519 5518 5506 5499 5492 5492 5503 5524 5541 5550 5542 5534 5538 5535 5536 5524 5528 5537 5559 5579 5591 5589 5591 5597 5617 5633 5649
5577 5585 5581 5569 5550 5540 5535 5531 5520 5509 5495 5488 5491 5492 5497 5492 5497 5496 5512 5508 5498 5491 5489 5482 5492 5500 5523 5536 5531 5513 5514 5516 5510 5519 5544 5558 5562 5579 5578 5576 5588 5587 5598 5619 5635
5563 5560 5538 5560 5556 5533 5530 5524 5519 5506 5494 5494 5498 5498 5492 5482 5495 5508 5516 5496 5498 5501 5490 5489 5507 5515 5515 5519 5525 5524 5517 5511 5507 5514 5519 5546 5560 5563 5571 5572 5582 5582 5586 5602 5626
5552 5540 5539 5541 5535 5535 5526 5531 5514 5502 5490 5503 5499 5501 5495 5479 5480 5492 5493 5488 5486 5503 5487 5489 5510 5520 5529 5541 5544 5538 5528 5518 5518 5518 5522 5536 5558 5555 5555 5563 5568 5573 5581 5593 5615
5530 5521 5507 5537 5539 5536 5533 5519 5509 5501 5507 5505 5495 5478 5482 5496 5503 5505 5506 5500 5488 5481 5480 5485 5499 5508 5534 5550 5544 5536 5510 5497 5503 5501 5508 5524 5542 5534 5548 5564 5573 5578 5583 5597 5614